Home > Weather > Aschersleben > Past weeks

Flag for Germany Past Weather in Aschersleben, Saxony-Anhalt, Germany — Yesterday and Last 2 Weeks

Now
70 °F

Clear.


Feels Like: 70 °F
Forecast: 59 / 76 °F
Wind: 6 mph from Northwest

Location: Leipzig-Schkeuditz

Current Time: Jul 26, 2016 at 2:49:36 AM

Latest Report: Jul 26, 2016 at 2:20 AM


Visibility: 10 mi

Pressure: 30.07 "Hg

Humidity: 78%

Dew Point: 63 °F

Location of AscherslebenLocation

Past Weather in Aschersleben — Graph

°F

Aschersleben Temperature Yesterday

Maximum temperature yesterday: 86 °F (at 1:50 PM)
Minimum temperature yesterday: 64 °F (at 4:20 AM)
Average temperature yesterday: 75 °F

High & Low Weather Summary for the Past Weeks

 TemperatureHumidityPressure
High88 °F (Jul 22, 3:20 PM)100% (Jul 14, 7:20 AM)30.27 "Hg (Jul 14, 7:20 AM)
Low48 °F (Jul 16, 5:50 AM)25% (Jul 23, 1:50 PM)29.77 "Hg (Jul 11, 1:20 AM)
Average70 °F65%30.03 "Hg
* Reported Jul 11 1:20 AM — Jul 26 1:50 AM, Aschersleben, Weather by CustomWeather, © 2016

Note: Actual official high and low records may vary slightly from our data, if they occured in-between our weather recording intervals... More about our weather records

Advertising

Aschersleben Weather History for the Previous 24 Hours

Scroll right to see more
 ConditionsComfort  
Time TempWeatherWind HumidityBarometerVisibility
1:50 AM
Tue, Jul 26
70 °FClear.8 mph78%30.07 "Hg10 mi
1:20 AM72 °FClear.9 mph78%30.07 "Hg10 mi
12:50 AM73 °FClear.8 mph74%30.07 "Hg10 mi
12:20 AM72 °FClear.6 mph78%30.07 "Hg10 mi
11:50 PM
Mon, Jul 25
72 °FClear.6 mph78%30.07 "Hg10 mi
11:20 PM72 °FClear.6 mph78%30.07 "Hg10 mi
10:50 PM73 °FSprinkles. Passing clouds.5 mph69%30.07 "HgN/A
10:20 PM73 °FSprinkles. Passing clouds.7 mph69%30.07 "HgN/A
9:50 PM75 °FSprinkles. Partly sunny.9 mph65%30.07 "HgN/A
9:20 PM75 °FThundershowers. Broken clouds.7 mph65%30.07 "HgN/A
8:50 PM77 °FScattered showers. Broken clouds.6 mph61%30.04 "HgN/A
8:20 PM77 °FSunny.7 mph65%30.04 "Hg10 mi
7:50 PM79 °FSunny.9 mph61%30.04 "Hg10 mi
7:20 PM81 °FSunny.8 mph54%30.01 "Hg10 mi
6:50 PM81 °FPassing clouds.10 mph51%30.04 "HgN/A
6:20 PM81 °FSunny.13 mph54%30.01 "Hg10 mi
5:50 PM81 °FPartly sunny.13 mph54%30.04 "HgN/A
5:20 PM84 °FPartly sunny.5 mph40%30.04 "HgN/A
4:50 PM84 °FSunny.2 mph43%30.04 "Hg10 mi
4:20 PM81 °FBroken clouds.3 mph51%30.04 "HgN/A
3:50 PM77 °FSprinkles. Partly sunny.7 mph65%30.04 "HgN/A
3:20 PM72 °FRain showers. Partly sunny.7 mph83%30.04 "Hg5 mi
2:50 PM84 °FSprinkles. Partly sunny.6 mph37%30.04 "HgN/A
2:20 PM86 °FScattered showers. Broken clouds.6 mph38%30.04 "HgN/A
1:50 PM86 °FPassing clouds.5 mph38%30.04 "HgN/A
1:20 PM84 °FPassing clouds.6 mph40%30.04 "HgN/A
12:50 PM84 °FPassing clouds.3 mph40%30.04 "HgN/A
12:20 PM81 °FPassing clouds.6 mph45%30.04 "HgN/A
11:50 AM82 °FSunny.3 mph42%30.04 "Hg10 mi
11:20 AM82 °FScattered clouds.3 mph45%30.07 "HgN/A
10:50 AM79 °FScattered clouds.3 mph51%30.07 "HgN/A
10:20 AM79 °FPassing clouds.3 mph54%30.07 "HgN/A
9:50 AM79 °FPassing clouds.3 mph54%30.07 "HgN/A
9:20 AM77 °FSunny.2 mph61%30.07 "Hg10 mi
8:50 AM75 °FSunny.2 mph74%30.07 "Hg10 mi
8:20 AM75 °FPassing clouds.3 mph74%30.07 "HgN/A
7:50 AM73 °FPassing clouds.6 mph78%30.07 "HgN/A
7:20 AM70 °FSunny.5 mph88%30.07 "Hg10 mi
6:50 AM68 °FSunny.5 mph88%30.07 "Hg10 mi
6:20 AM66 °FClear.3 mph88%30.07 "Hg10 mi
5:50 AM64 °FClear.3 mph94%30.07 "Hg10 mi
5:20 AM64 °FClear.5 mph94%30.07 "Hg10 mi
4:50 AM64 °FPassing clouds.6 mph88%30.07 "HgN/A
4:20 AM64 °FClear.5 mph94%30.07 "Hg10 mi
3:50 AM66 °FClear.6 mph88%30.07 "Hg10 mi
3:20 AM66 °FClear.5 mph88%30.07 "Hg10 mi
2:50 AM66 °FClear.5 mph88%30.07 "Hg10 mi
2:20 AM66 °FClear.2 mph88%30.07 "Hg10 mi
Weather by CustomWeather, © 2016

See weather overviewHow to use our weather pages